Powrót do katalogu

FENGYUN 1C DEB

AktywnySSO
NORAD 30691·DEBRIS·🇨🇳 China

Wystrzelony May 10, 1999 z Taiyuan Satellite Launch Center

Loading…

Następne Przeloty (najbliższe 24 godziny)

TLE

ŚwieżeSource: Space-Track

Epoka: Sep 13, 2026, 17:53 UTC

1 30691U 99025AQZ 26256.74524814  .00000853  00000-0  67019-3 0  9992
2 30691  98.7442 256.6567 0137535 199.5344 337.5661 13.90127258989365

Śledź FENGYUN 1C DEB w czasie rzeczywistym z AllMySat

Download on the App Store